レモン彗星

C/2023 V1 ( Lemmon )

English version
Home page
Updated on August 30, 2025

---------------------------------------------------------------------

・ プロフィール

発見日 2023年11月2日
発見光度 20.5等
発見者 J. B. Fazekas (Mt. Lemmon)

・ 写真集

・ 軌道要素

Epoch 2025 May 5.0 TT = JDT 2460800.5
T 2025 July 13.03880 TT                                 Pike
q   5.0925833            (2000.0)            P               Q
z  -0.0000690      Peri.  103.31416     -0.16983590     -0.95222324
 +/-0.0000014      Node    15.04088     -0.61291229     -0.09962404
e   1.0003514      Incl.  102.01397     +0.77168277     -0.28869698
From 356 observations 2022 Sept. 23-2025 Aug. 2, mean residual 0".5.

・ 光度変化

        m1 = 0.0 + 5 logΔ + 20.0 log r

---------------------------------------------------------------------

軌道要素はM.P.E.C. 2025-P113に掲載されたものです。
光度グラフはComet for Windowsで作成したものです。

---------------------------------------------------------------------

Copyright(C) Seiichi Yoshida (comet@aerith.net). All rights reserved.